#timestamp,LO_Frequency,Hit,StdDev 
1592978415.9,286047007.2,N
1592978435.7,286047006.2,N
1592978455.6,286047006.4,N
1592978475.4,286047008.9,N
1592978495.2,286047010.0,N
1592978515.1,286047011.0,Y
1592978516.0,286047011.0,P
1592978535.8,286047010.0,N
1592978555.6,286047012.3,P
1592978575.5,286047010.5,N
1592978595.3,286047012.2,Y
1592978615.2,286047002.1,P
1592978635.9,286047004.3,N
1592978655.7,286047002.5,N
1592978675.6,286047002.7,N
1592978695.4,286046998.4,N
1592978715.2,286047003.2,N
1592978735.1,286047005.9,N
1592978736.0,286047005.9,N
1592978755.8,286047001.6,N
1592978775.7,286047001.3,N
1592978795.5,286047002.7,N
1592978815.3,286046999.8,N
1592978835.2,286047000.4,N
1592978855.0,286047001.2,N
1592978855.9,286047001.2,N
1592978875.7,286046999.0,N
1592978895.6,286046996.7,N
1592978915.4,286046996.9,N
1592978935.3,286046997.5,N
1592978955.1,286046997.5,N
1592978956.0,286046997.5,N
1592978975.8,286046995.5,N
1592978995.7,286046995.2,N
1592979015.5,286046995.0,N
1592979035.3,286046993.4,N
1592979055.2,286046995.6,N
1592979075.0,286046998.0,N
1592979075.9,286046998.0,N
1592979095.8,286046995.4,N
1592979115.6,286046998.0,N
1592979135.4,286046996.8,N
1592979155.3,286046996.7,N
1592979175.1,286046997.4,N
1592979195.8,286046997.0,N
1592979215.7,286046999.3,N
1592979235.5,286047000.8,N
1592979255.3,286046996.7,N
1592979275.2,286046997.2,N
1592979295.0,286046996.9,N
1592979295.9,286046996.9,N
1592979315.8,286046997.1,N
1592979335.6,286046997.1,N
1592979355.4,286046995.9,N
1592979375.3,286046993.4,Y
1592979395.1,286046997.0,P
1592979415.9,286046998.3,P
1592979435.7,286047001.2,N
1592979455.5,286046999.9,N
1592979475.4,286047002.3,N
1592979495.2,286047004.0,N
1592979515.0,286047002.7,N
1592979515.9,286047002.7,N
1592979535.8,286047001.7,N
1592979555.6,286047005.5,N
1592979575.5,286047004.0,N
1592979595.3,286047003.2,N
1592979615.1,286047005.5,N
1592979635.9,286047006.0,N
1592979655.7,286047003.9,N
1592979675.5,286047004.2,N
1592979695.4,286047004.2,N
1592979715.2,286047003.2,N
1592979735.0,286047003.7,N
1592979736.0,286047003.7,N
1592979755.8,286047004.2,N
1592979775.6,286047001.6,N
1592979795.5,286047000.2,N
1592979815.3,286047001.5,N
1592979835.1,286047000.6,N
1592979855.9,286047000.5,N
1592979875.7,286047002.7,N
1592979895.6,286047003.1,N
1592979915.4,286047004.0,N
1592979935.2,286047003.7,N
1592979955.1,286047003.0,N
1592979956.0,286047003.0,N
1592979975.8,286047004.1,N
1592979995.6,286047005.9,Y
1592980045.5,286047000.1,E
1592980055.4,286047002.4,N
1592980075.3,286047001.5,P
1592980095.1,286047001.3,N
1592980115.8,286047001.9,Y
1592980135.7,286047002.5,P
1592980155.5,286047002.3,P
1592980175.4,286047001.8,P
1592980195.2,286047002.7,Y
1592980215.0,286046999.0,P
1592980215.9,286046999.0,N
1592980235.8,286046999.4,N
1592980255.6,286046999.3,N
1592980275.4,286046999.0,N
1592980295.3,286046996.7,Y
1592980315.1,286046999.0,P
1592980335.9,286046996.5,P
1592980355.7,286046999.0,N
1592980375.5,286046998.9,N
1592980395.4,286046999.6,N
1592980415.2,286046995.3,Y
1592980435.0,286046995.1,P
1592980435.9,286046995.1,N
1592980455.8,286046995.6,N
1592980475.6,286046995.3,Y
1592980495.5,286047002.8,P
1592980515.3,286047000.4,N
1592980565.2,286047001.2,E
1592980575.1,286047000.3,N
1592980576.0,286047000.3,P
1592980595.8,286047000.2,P
1592980615.7,286047000.0,N
1592980635.5,286046998.3,Y
1592980655.3,286046998.9,P
1592980675.2,286046998.6,N
1592980695.0,286046998.9,N
1592980695.9,286046998.9,N
1592980715.8,286046998.3,Y
1592980735.6,286046999.5,P
1592980755.4,286046998.8,P
1592980775.3,286046998.2,P
1592980795.1,286047000.8,N
1592980815.8,286047000.3,N
1592980835.7,286047001.1,N
1592980855.5,286047001.2,N
1592980875.4,286047000.5,N
1592980895.2,286047000.9,N
1592980915.0,286047002.5,N
1592980915.9,286047002.5,N
1592980935.8,286047000.4,N
1592980955.6,286047002.6,N
1592980975.4,286047001.1,N
1592980995.3,286046998.2,N
1592981015.1,286047000.6,N
1592981035.9,286046999.7,N
1592981055.7,286047000.2,N
1592981075.5,286047002.7,N
1592981095.4,286047002.2,N
1592981115.2,286047000.2,N
1592981135.0,286047001.6,N
1592981135.9,286047001.6,N
1592981155.8,286046999.8,N
1592981175.6,286047000.5,N
1592981195.5,286046998.1,N
1592981215.3,286046998.2,N
1592981235.1,286046998.2,N
1592981255.9,286046998.7,N
1592981275.7,286046998.8,N
1592981295.5,286046999.4,N
1592981315.4,286046998.4,N
1592981335.2,286047000.4,N
1592981355.0,286046998.2,N
1592981356.0,286046998.2,N
1592981375.8,286047002.7,N
1592981395.6,286047002.3,N
1592981415.5,286047004.0,N
1592981435.3,286047001.4,N
1592981455.1,286047001.3,N
1592981475.9,286047004.0,N
1592981495.7,286047003.2,N
1592981515.5,286047002.6,N
1592981535.4,286047002.4,N
1592981555.2,286047003.6,N
1592981575.1,286047006.4,Y
1592981576.0,286047006.4,P
1592981595.8,286047005.2,N
1592981615.6,286047005.4,N
1592981635.5,286047004.8,N
1592981655.3,286047005.7,N
1592981675.2,286047005.3,N
1592981695.9,286047005.2,Y
1592981715.7,286047004.0,P
1592981735.6,286047004.4,P
1592981755.4,286047003.3,P
1592981775.2,286047002.9,Y
1592981795.1,286047000.4,P
1592981796.0,286047000.4,N
1592981815.8,286047000.0,N
1592981835.7,286047001.6,N
1592981855.5,286047011.9,Y
1592981875.3,286047002.2,P
1592981895.2,286046999.8,N
1592981915.0,286047000.2,N
1592981915.9,286047000.2,N
1592981935.8,286046998.7,N
1592981955.6,286046998.3,N
1592981975.4,286046998.9,N
1592981995.3,286046997.0,N
